When you browse on this site, cookies collect data to enhance your experience and personalize the content and advertising you see.
Visit our Privacy Policy to learn more. By continuing to use the site, you agree to this use of cookies and data.
  • In Hungary
  • List of Countries
  • For 7 days
  • Water Temperature
  • Weather Map
  • News
  • Weather Widgets
  • user-avatar
    Login

    Hourly Weather Elizabeth

    Today, 18 November, Monday

    Time Temperature Precipitation Wind Pressure Humidity
    00:00 +2°C° 0 mm 5 mps 762 mmHg 72%
    01:00 +2°C° 0 mm 5 mps 761 mmHg 73%
    02:00 +2°C° 0 mm 5 mps 760 mmHg 73%
    03:00 +2°C° 0 mm 5 mps 759 mmHg 74%
    04:00 +2°C° 0 mm 5 mps 759 mmHg 74%
    05:00 +2°C° 0 mm 5 mps 758 mmHg 75%
    06:00 +2°C° 0 mm 5 mps 758 mmHg 75%
    07:00 +2°C° 0 mm 5 mps 758 mmHg 76%
    08:00 +2°C° 0 mm 5 mps 758 mmHg 74%
    09:00 +4°C° 0 mm 4 mps 757 mmHg 71%
    10:00 +4°C° 0 mm 4 mps 757 mmHg 69%
    11:00 +4°C° 0 mm 4 mps 756 mmHg 68%
    12:00 +5°C° 0 mm 3 mps 756 mmHg 68%
    13:00 +5°C° 0 mm 3 mps 756 mmHg 68%
    14:00 +4°C° 0.1 mm 3 mps 755 mmHg 71%
    15:00 +4°C° 0.1 mm 3 mps 755 mmHg 73%
    16:00 +4°C° 0.1 mm 3 mps 755 mmHg 75%
    17:00 +4°C° 0.1 mm 3 mps 755 mmHg 76%
    18:00 +4°C° 0.1 mm 3 mps 755 mmHg 77%
    19:00 +5°C° 0.1 mm 2 mps 755 mmHg 78%
    20:00 +5°C° 0.3 mm 2 mps 755 mmHg 80%
    21:00 +5°C° 0.3 mm 2 mps 755 mmHg 82%
    22:00 +6°C° 0.3 mm 1 mps 755 mmHg 83%
    23:00 +6°C° 0.8 mm 1 mps 755 mmHg 85%

    Tomorrow, 19 November, Tuesday

    Time Temperature Precipitation Wind Pressure Humidity
    00:00 +5°C° 0.8 mm 1 mps 754 mmHg 86%
    01:00 +5°C° 0.8 mm 1 mps 754 mmHg 88%
    02:00 +5°C° 0.5 mm 1 mps 754 mmHg 88%
    03:00 +5°C° 0.5 mm 1 mps 754 mmHg 87%
    04:00 +6°C° 0.5 mm 1 mps 754 mmHg 87%
    05:00 +5°C° 0 mm 2 mps 754 mmHg 86%
    06:00 +5°C° 0 mm 2 mps 755 mmHg 86%
    07:00 +5°C° 0 mm 2 mps 755 mmHg 85%
    08:00 +6°C° 0 mm 2 mps 755 mmHg 80%
    09:00 +6°C° 0 mm 2 mps 755 mmHg 76%
    10:00 +7°C° 0 mm 2 mps 756 mmHg 71%
    11:00 +8°C° 0 mm 2 mps 755 mmHg 67%
    12:00 +10°C° 0 mm 2 mps 755 mmHg 63%
    13:00 +12°C° 0 mm 2 mps 755 mmHg 58%
    14:00 +12°C° 0 mm 2 mps 755 mmHg 60%
    15:00 +12°C° 0 mm 2 mps 755 mmHg 61%
    16:00 +10°C° 0 mm 2 mps 756 mmHg 63%
    17:00 +10°C° 0 mm 2 mps 756 mmHg 65%
    18:00 +9°C° 0 mm 2 mps 756 mmHg 68%
    19:00 +8°C° 0 mm 3 mps 757 mmHg 70%
    20:00 +8°C° 0 mm 3 mps 757 mmHg 69%
    21:00 +8°C° 0 mm 3 mps 757 mmHg 68%
    22:00 +7°C° 0 mm 3 mps 757 mmHg 67%
    23:00 +7°C° 0 mm 2 mps 757 mmHg 67%

    Day after tomorrow, 20 November, Wednesday

    Time Temperature Precipitation Wind Pressure Humidity
    00:00 +7°C° 0 mm 2 mps 757 mmHg 67%
    01:00 +7°C° 0 mm 2 mps 757 mmHg 66%
    02:00 +6°C° 0 mm 2 mps 757 mmHg 68%
    03:00 +6°C° 0 mm 2 mps 757 mmHg 70%
    04:00 +6°C° 0 mm 2 mps 757 mmHg 72%
    05:00 +6°C° 0 mm 2 mps 758 mmHg 72%
    06:00 +5°C° 0 mm 2 mps 758 mmHg 72%
    07:00 +4°C° 0 mm 3 mps 758 mmHg 72%
    08:00 +5°C° 0 mm 3 mps 759 mmHg 68%
    09:00 +5°C° 0 mm 4 mps 759 mmHg 64%
    10:00 +6°C° 0 mm 4 mps 759 mmHg 59%
    11:00 +7°C° 0 mm 5 mps 759 mmHg 58%
    12:00 +7°C° 0 mm 5 mps 759 mmHg 57%
    13:00 +7°C° 0 mm 5 mps 759 mmHg 55%
    14:00 +7°C° 0 mm 5 mps 760 mmHg 56%
    15:00 +7°C° 0 mm 5 mps 760 mmHg 57%
    16:00 +6°C° 0 mm 5 mps 760 mmHg 57%
    17:00 +6°C° 0 mm 5 mps 761 mmHg 59%
    18:00 +5°C° 0 mm 5 mps 761 mmHg 61%
    19:00 +5°C° 0 mm 5 mps 762 mmHg 63%
    20:00 +3°C° 0 mm 5 mps 762 mmHg 64%
    21:00 +3°C° 0 mm 5 mps 763 mmHg 64%
    22:00 +3°C° 0 mm 5 mps 763 mmHg 65%
    23:00 +2°C° 0 mm 5 mps 763 mmHg 66%

    21 November, Thursday

    Time Temperature Precipitation Wind Pressure Humidity
    00:00 +2°C° 0 mm 5 mps 763 mmHg 67%
    01:00 +2°C° 0 mm 5 mps 763 mmHg 68%
    02:00 +3°C° 0 mm 4 mps 764 mmHg 69%
    03:00 +3°C° 0 mm 4 mps 764 mmHg 71%
    04:00 +3°C° 0 mm 3 mps 764 mmHg 72%
    05:00 +2°C° 0 mm 3 mps 764 mmHg 72%
    06:00 +2°C° 0 mm 3 mps 765 mmHg 72%
    07:00 +2°C° 0 mm 3 mps 765 mmHg 71%
    08:00 +3°C° 0 mm 3 mps 765 mmHg 66%
    09:00 +4°C° 0 mm 3 mps 765 mmHg 62%
    10:00 +5°C° 0 mm 3 mps 766 mmHg 57%
    11:00 +7°C° 0 mm 2 mps 765 mmHg 54%
    12:00 +8°C° 0 mm 2 mps 764 mmHg 50%
    13:00 +9°C° 0 mm 2 mps 763 mmHg 47%
    14:00 +9°C° 0 mm 2 mps 763 mmHg 49%
    15:00 +9°C° 0 mm 2 mps 763 mmHg 50%
    16:00 +9°C° 0 mm 3 mps 763 mmHg 52%
    17:00 +8°C° 0 mm 2 mps 763 mmHg 54%
    18:00 +8°C° 0 mm 2 mps 763 mmHg 56%
    19:00 +8°C° 0 mm 2 mps 763 mmHg 58%
    20:00 +7°C° 0 mm 2 mps 762 mmHg 59%
    21:00 +7°C° 0 mm 3 mps 762 mmHg 60%
    22:00 +7°C° 0 mm 3 mps 762 mmHg 61%
    23:00 +7°C° 0 mm 3 mps 761 mmHg 64%

    22 November, Friday

    Time Temperature Precipitation Wind Pressure Humidity
    00:00 +6°C° 0 mm 4 mps 761 mmHg 66%
    01:00 +7°C° 0 mm 4 mps 760 mmHg 68%
    02:00 +7°C° 0.1 mm 4 mps 759 mmHg 71%
    03:00 +7°C° 0.1 mm 4 mps 759 mmHg 75%
    04:00 +7°C° 0.1 mm 4 mps 758 mmHg 78%
    05:00 +7°C° 0 mm 4 mps 758 mmHg 79%
    06:00 +7°C° 0 mm 4 mps 757 mmHg 81%
    07:00 +8°C° 0 mm 4 mps 757 mmHg 83%
    08:00 +8°C° 0 mm 4 mps 756 mmHg 81%
    09:00 +10°C° 0 mm 4 mps 756 mmHg 79%
    10:00 +10°C° 0 mm 4 mps 756 mmHg 77%
    11:00 +10°C° 1.4 mm 4 mps 755 mmHg 82%
    12:00 +9°C° 1.4 mm 5 mps 754 mmHg 87%
    13:00 +9°C° 1.4 mm 5 mps 753 mmHg 91%
    14:00 +9°C° 0.9 mm 5 mps 753 mmHg 92%
    15:00 +9°C° 0.9 mm 5 mps 753 mmHg 93%
    16:00 +11°C° 0.9 mm 4 mps 753 mmHg 93%
    17:00 +10°C° 0.3 mm 5 mps 753 mmHg 86%
    18:00 +9°C° 0.3 mm 5 mps 754 mmHg 79%
    19:00 +9°C° 0.3 mm 5 mps 754 mmHg 72%
    20:00 +8°C° 0 mm 5 mps 755 mmHg 70%
    21:00 +7°C° 0 mm 5 mps 756 mmHg 67%
    22:00 +6°C° 0 mm 5 mps 757 mmHg 64%
    23:00 +5°C° 0 mm 5 mps 757 mmHg 62%

    23 November, Saturday

    Time Temperature Precipitation Wind Pressure Humidity
    00:00 +3°C° 0 mm 5 mps 758 mmHg 60%
    01:00 +2°C° 0 mm 5 mps 758 mmHg 57%
    02:00 +1°C° 0 mm 5 mps 758 mmHg 57%
    03:00 +1°C° 0 mm 4 mps 758 mmHg 57%
    04:00 +1°C° 0 mm 3 mps 759 mmHg 57%
    05:00 +1°C° 0 mm 3 mps 759 mmHg 57%
    06:00 +1°C° 0 mm 3 mps 759 mmHg 57%
    07:00 +1°C° 0 mm 3 mps 760 mmHg 57%
    08:00 +2°C° 0 mm 2 mps 760 mmHg 54%
    09:00 +3°C° 0 mm 2 mps 760 mmHg 51%
    10:00 +4°C° 0 mm 1 mps 760 mmHg 49%
    11:00 +4°C° 0.1 mm 1 mps 760 mmHg 49%
    12:00 +4°C° 0.1 mm 1 mps 759 mmHg 49%
    13:00 +4°C° 0.1 mm 0 mps 758 mmHg 49%
    14:00 +3°C° 0 mm 0 mps 758 mmHg 52%
    15:00 +4°C° 0 mm 1 mps 758 mmHg 55%
    16:00 +4°C° 0 mm 1 mps 757 mmHg 58%
    17:00 +4°C° 0 mm 1 mps 757 mmHg 61%
    18:00 +3°C° 0 mm 0 mps 757 mmHg 63%
    19:00 +3°C° 0 mm 0 mps 757 mmHg 65%
    20:00 +4°C° 0.1 mm 1 mps 757 mmHg 66%
    21:00 +4°C° 0.1 mm 1 mps 756 mmHg 67%
    22:00 +3°C° 0.1 mm 2 mps 756 mmHg 67%
    23:00 +3°C° 0 mm 2 mps 756 mmHg 65%
    Show more